Wind_Speed
21 23 21 16 15 15 12 11 9 8 7 7 6 7 4 4 7 9 13 11 11 11 14 17 19 22 24 26 27 32 37 39 38 38 34 30 23 19 18 14 14 14 15 17 12
22 23 20 20 16 15 16 13 12 11 10 10 9 9 8 6 5 5 8 10 7 7 10 11 12 16 18 19 22 24 30 33 36 36 37 35 30 23 19 18 20 19 18 19 17
23 22 18 17 21 18 17 18 16 14 12 11 11 11 12 10 9 5 4 6 5 6 7 8 9 13 12 14 18 19 22 26 31 32 35 35 35 29 23 21 18 17 18 15 13
28 25 21 18 20 20 20 20 20 18 16 14 14 14 15 13 13 10 8 5 4 1 6 8 9 7 9 12 13 13 14 18 23 25 28 32 32 31 27 22 21 21 19 18 16
32 30 28 23 22 22 20 21 25 23 21 19 19 18 18 18 17 16 14 11 6 7 7 11 10 11 8 9 9 10 11 10 16 17 22 25 30 30 29 26 24 22 20 21 18
36 36 34 32 31 27 26 25 25 26 24 23 23 22 23 22 21 19 20 17 13 11 13 15 15 15 14 10 8 9 7 6 7 11 15 17 23 25 28 25 28 24 20 21 19
43 42 39 37 34 31 29 28 28 24 26 26 26 25 26 26 26 24 22 21 19 18 16 17 19 20 16 15 12 10 7 8 7 4 8 10 15 22 22 23 24 26 22 19 20
46 45 44 41 39 37 36 35 35 32 31 30 30 30 28 28 28 29 29 24 23 23 22 21 21 22 21 17 14 14 13 9 6 4 3 3 9 13 18 18 18 24 24 21 20
53 51 49 48 47 44 43 41 40 39 36 34 32 33 29 32 31 33 34 29 27 25 24 26 26 24 24 23 20 18 17 15 9 7 8 5 1 9 9 13 14 13 22 22 21
59 58 56 53 52 51 49 47 46 44 41 40 37 33 34 34 34 36 35 34 30 27 25 24 24 24 24 25 23 22 19 20 17 15 14 10 7 3 8 8 10 13 13 19 18
62 61 61 60 59 56 54 53 52 49 46 45 42 39 36 36 39 39 36 32 30 25 20 18 20 22 21 22 23 24 22 21 20 20 16 12 11 9 8 8 9 10 14 13 16
56 56 56 56 56 55 54 51 52 52 50 46 45 44 42 38 36 30 29 27 24 21 20 17 15 14 16 16 17 18 20 19 19 20 21 17 15 13 15 12 11 9 10 11 10
49 49 49 50 50 49 48 46 45 46 46 44 45 42 37 30 24 22 23 24 22 21 19 16 13 12 10 8 9 12 15 15 17 19 24 26 19 18 17 16 14 14 13 11 9
42 43 44 43 41 40 39 38 37 37 36 35 34 28 23 24 24 23 22 21 20 19 19 16 14 13 12 14 12 9 12 18 21 25 27 28 27 25 22 18 20 18 17 17 14
34 35 36 37 37 35 34 32 30 29 28 27 27 27 25 26 26 26 24 23 21 21 20 18 15 13 12 11 9 8 8 9 17 26 31 29 25 30 29 24 20 22 21 21 22
27 28 28 28 29 29 30 29 27 25 24 26 26 28 28 27 28 27 26 23 22 21 21 20 17 15 14 14 11 9 9 9 9 15 29 32 34 31 33 32 30 27 24 24 24
27 27 26 26 26 27 27 28 27 26 28 29 29 29 30 30 30 29 27 25 24 24 23 24 21 20 20 18 17 16 13 12 12 13 17 28 34 39 37 36 33 32 32 33 30
30 31 29 29 29 28 28 28 29 31 32 33 33 33 33 33 31 29 28 28 27 26 26 26 24 23 24 23 23 23 21 18 18 17 17 17 20 28 39 40 40 36 36 35 35
30 29 31 32 32 32 31 30 31 32 33 35 34 34 32 31 31 31 30 28 27 25 24 27 26 27 26 27 28 27 25 23 23 22 24 21 19 20 22 30 39 43 42 42 44
33 32 31 32 31 30 30 30 31 32 32 33 32 31 31 32 32 32 30 29 28 28 28 29 27 29 29 28 29 28 28 28 27 28 29 30 28 24 22 23 24 26 35 46 48
38 37 35 34 33 33 32 32 33 33 33 34 35 33 33 35 35 35 31 31 33 34 33 34 32 32 30 31 28 27 26 23 24 26 29 31 34 30 30 30 28 25 25 26 30
42 40 40 39 38 37 36 35 35 37 38 37 39 40 39 38 39 40 40 40 40 40 39 39 37 38 37 35 32 32 32 29 26 26 24 25 33 30 30 30 33 33 32 31 29
45 45 45 44 43 43 42 41 41 42 43 42 42 43 45 46 45 45 46 46 46 46 44 43 41 44 43 41 40 38 38 37 36 31 30 28 37 31 29 29 29 31 35 37 37
48 47 48 48 48 48 48 48 48 48 49 49 48 47 48 49 50 49 49 50 51 51 51 50 49 49 49 51 49 47 47 45 43 40 41 34 39 40 37 33 33 35 35 34 35
50 51 52 52 52 52 52 54 54 55 55 55 55 56 56 57 56 56 56 57 56 56 57 57 56 55 56 56 56 56 54 53 51 50 46 48 45 47 46 43 43 44 43 42 39
47 49 50 53 55 56 56 57 58 59 59 60 60 61 61 61 62 63 64 64 64 64 65 65 64 64 62 63 63 62 62 63 62 59 55 56 54 55 53 54 52 50 50 50 51
40 42 44 45 47 49 52 55 58 61 63 63 64 65 64 64 65 65 66 67 68 69 70 70 70 71 69 69 70 69 67 67 68 67 65 64 61 59 61 58 60 59 56 56 56
Wind_Direction
201 203 211 212 221 223 230 235 232 252 283 288 302 328 345 357 45 51 43 48 58 51 43 43 51 49 52 54 58 60 64 65 64 59 57 64 80 88 97 103 115 109 115 117 133
216 210 218 219 222 227 233 233 236 234 255 278 286 295 306 309 332 56 60 42 35 50 43 38 45 44 43 42 48 57 65 63 63 61 62 62 67 75 82 96 109 110 108 112 119
221 220 218 228 227 230 233 231 233 237 236 255 276 287 293 298 293 320 9 52 40 12 23 28 49 25 39 44 43 45 59 66 66 65 58 62 61 73 79 81 85 87 99 108 110
229 226 235 237 229 231 233 233 238 238 237 238 249 270 283 291 288 291 294 322 10 52 21 9 5 354 350 9 28 39 47 63 69 69 65 61 62 65 74 77 79 81 84 91 95
227 238 246 247 241 244 244 238 239 241 240 238 243 259 267 277 283 283 278 281 298 308 306 328 329 326 343 346 356 15 27 34 72 72 73 64 64 62 65 74 72 69 76 82 91
228 243 249 251 248 252 248 249 247 244 249 255 252 258 262 266 263 268 271 271 274 282 299 304 305 305 312 322 324 332 350 353 18 79 79 68 76 66 60 60 79 75 67 76 86
239 246 248 252 251 253 252 250 252 247 254 258 264 264 262 263 269 268 263 263 267 268 282 292 295 294 292 298 300 298 297 305 322 30 81 87 79 84 71 58 63 84 80 67 89
242 246 248 251 251 252 255 255 256 254 254 254 257 265 272 273 273 273 267 264 270 273 274 279 286 285 289 284 284 286 288 284 290 275 306 98 102 85 90 80 58 69 90 89 89
246 249 249 250 251 255 259 258 257 256 259 256 258 265 270 277 281 284 282 278 282 281 281 281 282 281 278 275 269 264 273 274 253 268 256 252 195 122 103 100 87 46 77 98 93
248 249 251 252 254 256 257 258 257 257 259 259 261 262 273 281 282 284 286 287 289 287 284 281 280 275 270 265 262 260 252 259 256 242 246 241 244 238 149 128 112 100 59 84 111
247 250 253 256 257 256 258 259 260 259 260 263 265 269 273 276 282 283 284 287 289 289 283 276 271 267 265 260 258 257 251 243 251 239 229 225 239 234 233 184 160 133 113 100 105
250 251 253 255 257 257 258 257 258 260 262 264 266 269 272 271 274 273 277 278 280 279 277 276 269 264 263 260 255 254 257 251 246 242 228 222 236 237 239 227 201 187 157 147 134
248 250 252 254 254 255 257 256 256 257 259 262 265 266 270 267 262 267 270 272 272 271 271 271 264 257 239 232 236 240 242 245 239 231 227 230 224 239 234 220 214 202 197 187 187
248 249 251 252 253 252 253 254 255 256 257 257 255 251 246 248 261 265 267 268 265 264 265 261 257 250 227 213 200 179 221 223 224 232 235 228 228 228 221 219 211 207 208 208 206
245 247 248 249 250 250 249 249 250 252 249 248 234 238 246 253 260 264 266 263 259 256 254 255 247 249 249 227 218 197 195 203 219 219 226 231 233 228 225 224 224 227 223 221 216
244 244 244 243 243 240 241 242 246 242 237 236 242 245 249 255 259 266 268 260 245 245 246 244 245 247 251 258 241 234 221 220 223 226 223 223 220 218 222 230 232 233 230 228 228
240 238 238 239 239 239 238 240 238 235 236 236 241 243 250 259 263 263 260 250 242 241 245 245 240 246 248 244 250 244 240 241 242 233 216 223 225 224 227 224 229 231 226 230 239
239 241 237 237 240 241 240 238 236 236 236 240 243 248 253 257 257 255 252 253 250 246 245 252 251 249 250 253 245 245 243 242 248 252 241 226 223 227 230 235 234 225 231 235 238
244 243 242 239 239 240 240 241 241 242 244 246 248 250 251 251 250 251 254 256 256 255 254 256 255 255 252 252 254 253 251 249 252 256 258 242 247 231 226 229 233 237 236 237 244
250 247 245 246 245 244 242 241 242 242 244 247 247 248 250 252 253 254 255 257 257 260 262 261 260 262 260 258 256 256 253 250 250 256 257 258 245 248 248 247 235 231 236 236 241
248 250 249 249 250 250 250 248 248 248 248 251 252 251 254 258 261 262 258 260 265 266 267 266 262 259 260 257 254 253 253 250 247 249 254 258 261 250 251 252 250 245 241 241 240
247 248 250 250 250 251 251 250 251 253 254 255 258 261 257 256 259 262 263 262 263 263 264 266 266 266 265 264 263 262 265 259 250 248 246 254 261 258 257 256 254 252 250 249 248
248 248 250 253 254 255 255 255 255 255 256 255 256 258 261 263 262 262 263 265 267 265 265 266 266 268 268 265 266 268 269 268 266 260 256 250 262 253 257 257 256 253 251 254 252
246 248 251 252 254 256 257 258 258 259 260 260 260 260 261 263 266 266 266 265 266 267 268 267 266 266 267 270 266 266 268 269 267 265 263 263 260 263 255 253 258 259 258 252 255
246 247 249 251 254 256 257 258 258 259 261 262 263 264 264 264 264 265 266 266 267 267 268 268 268 267 266 266 268 270 267 266 266 265 261 265 265 260 266 262 256 257 260 262 259
250 249 249 251 252 253 255 255 256 257 259 261 260 261 262 262 262 263 263 263 263 263 264 266 267 267 267 267 266 267 269 268 265 262 259 262 263 263 261 264 261 257 256 257 260
251 252 254 255 256 256 257 257 258 258 257 257 260 260 259 259 258 258 259 261 262 262 261 261 262 263 263 263 264 266 266 266 266 265 260 259 257 257 260 258 260 259 256 254 256
Height
10984 10987 10990 10992 10995 10997 10998 11000 11002 11003 11003 11004 11004 11004 11006 11007 11009 11009 11008 11007 11006 11005 11004 11003 11002 11001 10999 10998 10996 10992 10989 10987 10983 10982 10980 10979 10979 10978 10979 10979 10979 10981 10982 10981 10983
10983 10986 10988 10991 10993 10996 10997 10999 11002 11003 11004 11004 11004 11004 11004 11007 11008 11010 11010 11009 11008 11007 11007 11006 11005 11004 11003 11001 11000 10998 10995 10993 10989 10989 10988 10985 10982 10982 10983 10984 10983 10983 10983 10983 10983
10981 10983 10986 10989 10991 10994 10995 10998 11000 11003 11004 11004 11004 11004 11003 11005 11006 11009 11009 11010 11010 11009 11008 11008 11007 11006 11006 11006 11003 11001 10999 10999 10996 10995 10994 10991 10989 10988 10988 10987 10986 10986 10985 10985 10985
10978 10981 10983 10986 10988 10991 10993 10996 10997 11000 11003 11004 11004 11004 11002 11004 11005 11006 11007 11010 11010 11010 11010 11009 11008 11008 11007 11007 11006 11006 11005 11003 11003 11003 11001 10999 10997 10994 10992 10992 10990 10989 10988 10986 10986
10975 10977 10980 10983 10985 10987 10990 10993 10995 10997 10999 11002 11003 11004 11002 11003 11003 11004 11005 11007 11010 11010 11010 11009 11009 11009 11010 11008 11007 11007 11007 11007 11006 11008 11007 11006 11004 11002 10998 10996 10994 10993 10992 10990 10989
10971 10973 10976 10979 10982 10984 10986 10989 10991 10994 10995 10998 11001 11002 11001 11002 11002 11003 11003 11005 11007 11009 11010 11009 11007 11007 11007 11008 11009 11008 11009 11010 11009 11010 11010 11010 11008 11007 11005 11003 10998 10997 10996 10995 10993
10967 10969 10972 10974 10977 10979 10983 10985 10988 10990 10992 10994 10996 10998 10999 10999 10999 11000 11002 11003 11004 11005 11007 11006 11005 11005 11006 11006 11007 11008 11009 11009 11010 11010 11011 11013 11011 11010 11010 11009 11006 11000 11000 11001 10999
10960 10963 10966 10969 10972 10975 10978 10980 10982 10985 10987 10989 10992 10993 10995 10995 10996 10996 10997 11000 11001 11001 11002 11002 11003 11002 11002 11003 11005 11005 11007 11009 11010 11010 11012 11013 11012 11011 11012 11013 11012 11008 11004 11006 11006
10955 10957 10960 10963 10966 10969 10971 10974 10977 10980 10982 10983 10987 10990 10991 10991 10991 10991 10991 10994 10996 10996 10997 10997 10997 10997 10998 10999 11001 11002 11002 11005 11008 11009 11010 11011 11012 11012 11013 11014 11015 11013 11010 11008 11011
10948 10950 10953 10956 10958 10961 10964 10968 10970 10973 10976 10977 10981 10984 10987 10987 10987 10985 10985 10987 10989 10990 10992 10992 10991 10991 10992 10993 10995 10996 11000 11000 11004 11007 11008 11010 11010 11011 11014 11015 11015 11015 11014 11012 11012
10939 10942 10945 10947 10950 10954 10958 10961 10963 10966 10968 10971 10973 10976 10980 10982 10982 10981 10981 10981 10983 10984 10986 10987 10987 10986 10985 10986 10988 10990 10992 10996 10999 11002 11005 11006 11009 11010 11012 11013 11015 11016 11015 11015 11015
10931 10933 10935 10938 10941 10944 10948 10952 10955 10958 10960 10964 10966 10969 10972 10975 10976 10976 10977 10978 10978 10979 10980 10981 10981 10981 10981 10981 10982 10984 10987 10991 10995 10997 11001 11002 11005 11008 11009 11011 11013 11015 11015 11016 11018
10922 10925 10927 10929 10932 10935 10938 10942 10946 10949 10953 10956 10958 10960 10963 10965 10968 10971 10972 10972 10972 10973 10974 10975 10976 10977 10977 10978 10978 10979 10982 10986 10989 10991 10995 10998 11001 11003 11006 11009 11011 11013 11014 11015 11017
10915 10917 10919 10920 10924 10927 10930 10934 10938 10942 10945 10948 10950 10953 10956 10958 10961 10964 10965 10966 10966 10966 10967 10969 10970 10972 10973 10974 10975 10976 10976 10978 10982 10985 10987 10992 10996 10998 11001 11003 11006 11009 11012 11014 11015
10908 10910 10912 10914 10917 10920 10923 10927 10931 10935 10938 10940 10943 10945 10948 10952 10955 10957 10959 10961 10960 10960 10962 10963 10965 10966 10966 10968 10969 10971 10972 10973 10975 10978 10983 10985 10988 10993 10997 11000 11002 11005 11008 11009 11011
10902 10904 10905 10907 10910 10914 10917 10921 10924 10928 10931 10934 10937 10940 10942 10945 10948 10950 10952 10954 10955 10955 10956 10957 10959 10961 10961 10962 10965 10967 10968 10969 10970 10972 10975 10977 10981 10986 10989 10992 10996 10999 11001 11004 11006
10897 10898 10900 10903 10906 10909 10913 10915 10919 10922 10925 10927 10930 10933 10936 10938 10940 10942 10943 10946 10948 10950 10950 10951 10955 10955 10956 10958 10959 10961 10963 10965 10965 10966 10969 10970 10973 10977 10980 10984 10988 10991 10993 10995 10998
10891 10892 10895 10898 10900 10903 10906 10910 10913 10915 10918 10920 10923 10926 10929 10931 10932 10933 10934 10937 10940 10943 10945 10945 10948 10949 10951 10952 10953 10954 10956 10958 10959 10960 10962 10964 10966 10969 10972 10975 10978 10982 10986 10988 10990
10884 10885 10888 10891 10894 10897 10900 10904 10906 10908 10910 10912 10916 10918 10921 10922 10923 10925 10927 10930 10933 10936 10938 10938 10940 10941 10944 10944 10945 10948 10951 10953 10953 10955 10955 10958 10960 10963 10965 10967 10970 10973 10976 10979 10981
10875 10879 10881 10883 10886 10889 10893 10896 10898 10900 10902 10904 10907 10910 10912 10913 10915 10917 10920 10922 10924 10926 10928 10929 10932 10933 10935 10937 10939 10941 10943 10945 10947 10948 10948 10949 10952 10955 10958 10959 10961 10964 10966 10969 10970
10867 10870 10872 10875 10878 10881 10885 10888 10889 10892 10894 10895 10897 10901 10903 10904 10905 10907 10912 10914 10915 10916 10918 10919 10922 10923 10926 10927 10931 10933 10935 10938 10941 10941 10942 10944 10942 10948 10950 10951 10953 10956 10957 10959 10962
10858 10861 10862 10866 10869 10871 10875 10878 10880 10882 10884 10888 10888 10889 10892 10895 10896 10897 10900 10902 10904 10906 10908 10910 10912 10913 10916 10919 10923 10925 10926 10930 10934 10936 10939 10940 10934 10938 10941 10943 10944 10947 10948 10949 10951
10847 10851 10852 10854 10858 10861 10864 10867 10870 10871 10873 10877 10878 10879 10879 10881 10884 10887 10888 10890 10891 10894 10897 10900 10904 10902 10904 10909 10911 10914 10916 10919 10923 10928 10932 10935 10927 10932 10934 10934 10935 10936 10938 10940 10941
10836 10839 10840 10843 10845 10848 10851 10854 10856 10859 10861 10863 10866 10867 10869 10869 10870 10873 10876 10877 10878 10879 10881 10885 10889 10891 10892 10892 10897 10902 10904 10907 10911 10917 10919 10926 10922 10922 10924 10927 10927 10926 10926 10928 10930
10822 10825 10828 10830 10833 10835 10837 10840 10842 10844 10846 10849 10852 10853 10854 10856 10857 10857 10859 10861 10862 10864 10865 10868 10871 10875 10877 10879 10880 10883 10888 10892 10898 10902 10907 10908 10912 10907 10912 10915 10916 10917 10917 10917 10919
10810 10812 10815 10817 10819 10820 10822 10824 10826 10829 10832 10833 10834 10836 10838 10840 10840 10841 10842 10845 10846 10847 10848 10849 10851 10855 10860 10861 10863 10867 10868 10871 10875 10882 10890 10892 10896 10894 10895 10898 10902 10904 10906 10906 10906
10799 10801 10803 10804 10806 10806 10808 10810 10810 10812 10815 10815 10815 10818 10820 10821 10822 10825 10825 10826 10828 10829 10830 10832 10833 10834 10840 10840 10842 10850 10850 10852 10855 10859 10866 10871 10876 10877 10876 10882 10882 10885 10889 10891 10894